sat.trackr.live / text

‹ back to catalog

STARLINK-32633

NORAD 62306 · 2024-239F

PAYLOAD ACTIVE UNKNOWN

§ Identity

Operator
Country
US
Launch date
2024-12-13
Launch site
AFWTR
Launch vehicle
Mass (kg)
RCS (m²)

Purposes: comms

External: N2YO · Heavens-Above · Gunter

§ Orbital elements

Epoch: 2026-09-21T14:23:49.406496Z

Period
93.85 min
Inclination
53.1619°
Eccentricity
0.0001100
Mean motion
15.34408046 rev/d
Perigee alt
461.9 km
Apogee alt
463.4 km
Semi-major
6,840.8 km
B*
5.6213e-4
RAAN
0.7439°
Arg perigee
83.4474°
Mean anomaly
276.6654°
Rev number
9,942

§ Raw data

STARLINK-326331 62306U 24239F   26264.59987739  .00018668  00000+0  56213-3 0  99922 62306  53.1619   0.7439 0001100  83.4474 276.6654 15.34408046 99424

JSON: /api/v1/satellites/62306 · /tle

For live sub-satellite position, see the globe view (requires WebGL).

§ Visibility from observer

Set your observer location to see the next 7 days of passes ≥ 10°. The values pass through the URL so the page stays shareable.

No JS? Fill the form by hand. The geolocation button needs JavaScript.